• Em Portugal
  • Lista de países
  • Para 7 dias
  • Temperatura da água
  • Mapas de satélite
  • Mapa do tempo
  • Widgets de tempo
  • user-avatar
    Iniciar Sessão

    Previsão horária em Tsumeb

    Hoje, 18 Junho, Segunda-feira

    Tempo Temperatura Precipitação Vento Pressão Humidade
    00:00 +15°C° 0 mm 2 m/s 656 mmHg 28%
    01:00 +14°C° 0 mm 2 m/s 656 mmHg 30%
    02:00 +14°C° 0 mm 2 m/s 655 mmHg 31%
    03:00 +13°C° 0 mm 2 m/s 655 mmHg 32%
    04:00 +13°C° 0 mm 2 m/s 655 mmHg 34%
    05:00 +13°C° 0 mm 2 m/s 655 mmHg 32%
    06:00 +14°C° 0 mm 2 m/s 656 mmHg 30%
    07:00 +15°C° 0 mm 2 m/s 656 mmHg 27%
    08:00 +18°C° 0 mm 2 m/s 657 mmHg 23%
    09:00 +21°C° 0 mm 3 m/s 658 mmHg 19%
    10:00 +25°C° 0 mm 3 m/s 658 mmHg 15%
    11:00 +26°C° 0 mm 3 m/s 658 mmHg 13%
    12:00 +27°C° 0 mm 3 m/s 657 mmHg 12%
    13:00 +28°C° 0 mm 3 m/s 657 mmHg 11%
    14:00 +28°C° 0 mm 2 m/s 657 mmHg 11%
    15:00 +28°C° 0 mm 2 m/s 657 mmHg 10%
    16:00 +28°C° 0 mm 2 m/s 656 mmHg 10%
    17:00 +25°C° 0 mm 2 m/s 656 mmHg 14%
    18:00 +21°C° 0 mm 2 m/s 655 mmHg 18%
    19:00 +18°C° 0 mm 1 m/s 654 mmHg 22%
    20:00 +18°C° 0 mm 1 m/s 654 mmHg 22%
    21:00 +16°C° 0 mm 2 m/s 655 mmHg 22%
    22:00 +16°C° 0 mm 2 m/s 655 mmHg 22%
    23:00 +15°C° 0 mm 1 m/s 655 mmHg 25%

    Amanhã, 19 Junho, Terça-feira

    Tempo Temperatura Precipitação Vento Pressão Humidade
    00:00 +14°C° 0 mm 1 m/s 654 mmHg 28%
    01:00 +13°C° 0 mm 1 m/s 654 mmHg 31%
    02:00 +13°C° 0 mm 1 m/s 654 mmHg 33%
    03:00 +13°C° 0 mm 1 m/s 654 mmHg 34%
    04:00 +12°C° 0 mm 1 m/s 654 mmHg 36%
    05:00 +13°C° 0 mm 1 m/s 654 mmHg 34%
    06:00 +13°C° 0 mm 1 m/s 654 mmHg 32%
    07:00 +13°C° 0 mm 1 m/s 655 mmHg 30%
    08:00 +17°C° 0 mm 2 m/s 656 mmHg 25%
    09:00 +20°C° 0 mm 2 m/s 657 mmHg 21%
    10:00 +24°C° 0 mm 2 m/s 658 mmHg 16%
    11:00 +26°C° 0 mm 2 m/s 658 mmHg 15%
    12:00 +27°C° 0 mm 2 m/s 657 mmHg 14%
    13:00 +28°C° 0 mm 2 m/s 657 mmHg 12%
    14:00 +28°C° 0 mm 2 m/s 657 mmHg 12%
    15:00 +28°C° 0 mm 2 m/s 656 mmHg 12%
    16:00 +28°C° 0 mm 1 m/s 656 mmHg 11%
    17:00 +25°C° 0 mm 1 m/s 655 mmHg 16%
    18:00 +22°C° 0 mm 1 m/s 655 mmHg 22%
    19:00 +19°C° 0 mm 1 m/s 654 mmHg 27%
    20:00 +18°C° 0 mm 2 m/s 655 mmHg 25%
    21:00 +17°C° 0 mm 2 m/s 655 mmHg 23%
    22:00 +17°C° 0 mm 2 m/s 655 mmHg 21%
    23:00 +16°C° 0 mm 2 m/s 655 mmHg 22%

    Depois de amanhã, 20 Junho, Quarta-feira

    Tempo Temperatura Precipitação Vento Pressão Humidade
    00:00 +16°C° 0 mm 2 m/s 655 mmHg 23%
    01:00 +15°C° 0 mm 2 m/s 655 mmHg 23%
    02:00 +14°C° 0 mm 2 m/s 655 mmHg 26%
    03:00 +14°C° 0 mm 2 m/s 654 mmHg 28%
    04:00 +13°C° 0 mm 2 m/s 654 mmHg 30%
    05:00 +13°C° 0 mm 2 m/s 655 mmHg 29%
    06:00 +14°C° 0 mm 2 m/s 655 mmHg 29%
    07:00 +14°C° 0 mm 2 m/s 656 mmHg 28%
    08:00 +17°C° 0 mm 2 m/s 657 mmHg 24%
    09:00 +21°C° 0 mm 3 m/s 658 mmHg 20%
    10:00 +25°C° 0 mm 4 m/s 659 mmHg 17%
    11:00 +26°C° 0 mm 4 m/s 658 mmHg 15%
    12:00 +27°C° 0 mm 4 m/s 658 mmHg 13%
    13:00 +29°C° 0 mm 4 m/s 658 mmHg 11%
    14:00 +28°C° 0 mm 4 m/s 657 mmHg 11%
    15:00 +28°C° 0 mm 3 m/s 657 mmHg 11%
    16:00 +28°C° 0 mm 3 m/s 656 mmHg 11%
    17:00 +26°C° 0 mm 3 m/s 656 mmHg 14%
    18:00 +23°C° 0 mm 2 m/s 656 mmHg 17%
    19:00 +19°C° 0 mm 2 m/s 655 mmHg 20%
    20:00 +18°C° 0 mm 2 m/s 656 mmHg 22%
    21:00 +18°C° 0 mm 2 m/s 656 mmHg 24%
    22:00 +17°C° 0 mm 2 m/s 656 mmHg 26%
    23:00 +16°C° 0 mm 2 m/s 656 mmHg 28%

    21 Junho, Quinta-feira

    Tempo Temperatura Precipitação Vento Pressão Humidade
    00:00 +16°C° 0 mm 2 m/s 656 mmHg 30%
    01:00 +15°C° 0 mm 2 m/s 656 mmHg 33%
    02:00 +15°C° 0 mm 2 m/s 656 mmHg 33%
    03:00 +15°C° 0 mm 2 m/s 656 mmHg 34%
    04:00 +14°C° 0 mm 2 m/s 656 mmHg 34%
    05:00 +14°C° 0 mm 2 m/s 656 mmHg 33%
    06:00 +14°C° 0 mm 2 m/s 657 mmHg 32%
    07:00 +13°C° 0 mm 3 m/s 657 mmHg 31%
    08:00 +18°C° 0 mm 3 m/s 658 mmHg 26%
    09:00 +21°C° 0 mm 4 m/s 659 mmHg 22%
    10:00 +26°C° 0 mm 4 m/s 660 mmHg 17%
    11:00 +27°C° 0 mm 4 m/s 659 mmHg 16%
    12:00 +28°C° 0 mm 4 m/s 659 mmHg 15%
    13:00 +28°C° 0 mm 4 m/s 658 mmHg 14%
    14:00 +28°C° 0 mm 4 m/s 658 mmHg 13%
    15:00 +28°C° 0 mm 3 m/s 658 mmHg 13%
    16:00 +28°C° 0 mm 3 m/s 657 mmHg 13%
    17:00 +26°C° 0 mm 3 m/s 657 mmHg 16%
    18:00 +22°C° 0 mm 3 m/s 657 mmHg 18%
    19:00 +20°C° 0 mm 3 m/s 657 mmHg 21%
    20:00 +19°C° 0 mm 3 m/s 657 mmHg 22%
    21:00 +18°C° 0 mm 3 m/s 657 mmHg 23%
    22:00 +18°C° 0 mm 3 m/s 658 mmHg 24%
    23:00 +17°C° 0 mm 3 m/s 657 mmHg 26%

    22 Junho, Sexta-feira

    Tempo Temperatura Precipitação Vento Pressão Humidade
    00:00 +16°C° 0 mm 3 m/s 657 mmHg 28%
    01:00 +16°C° 0 mm 3 m/s 657 mmHg 29%
    02:00 +14°C° 0 mm 3 m/s 657 mmHg 30%
    03:00 +14°C° 0 mm 3 m/s 657 mmHg 31%
    04:00 +14°C° 0 mm 3 m/s 656 mmHg 31%
    05:00 +14°C° 0 mm 3 m/s 657 mmHg 32%
    06:00 +14°C° 0 mm 3 m/s 657 mmHg 32%
    07:00 +14°C° 0 mm 3 m/s 658 mmHg 32%
    08:00 +18°C° 0 mm 4 m/s 659 mmHg 28%
    09:00 +22°C° 0 mm 4 m/s 659 mmHg 24%
    10:00 +26°C° 0 mm 5 m/s 660 mmHg 20%
    11:00 +27°C° 0 mm 5 m/s 659 mmHg 19%
    12:00 +27°C° 0 mm 4 m/s 659 mmHg 18%
    13:00 +28°C° 0 mm 4 m/s 658 mmHg 17%
    14:00 +28°C° 0 mm 4 m/s 658 mmHg 17%
    15:00 +28°C° 0 mm 3 m/s 657 mmHg 17%
    16:00 +28°C° 0 mm 3 m/s 657 mmHg 17%
    17:00 +25°C° 0 mm 3 m/s 657 mmHg 21%
    18:00 +23°C° 0 mm 2 m/s 657 mmHg 24%
    19:00 +19°C° 0 mm 2 m/s 657 mmHg 28%
    20:00 +19°C° 0 mm 2 m/s 657 mmHg 29%
    21:00 +18°C° 0 mm 2 m/s 657 mmHg 30%
    22:00 +18°C° 0 mm 2 m/s 657 mmHg 31%
    23:00 +17°C° 0 mm 2 m/s 657 mmHg 35%

    23 Junho, Sábado

    Tempo Temperatura Precipitação Vento Pressão Humidade
    00:00 +16°C° 0 mm 2 m/s 657 mmHg 38%
    01:00 +16°C° 0 mm 2 m/s 656 mmHg 41%
    02:00 +15°C° 0 mm 2 m/s 656 mmHg 45%
    03:00 +15°C° 0 mm 2 m/s 656 mmHg 49%
    04:00 +15°C° 0 mm 2 m/s 656 mmHg 53%
    05:00 +15°C° 0 mm 2 m/s 656 mmHg 52%
    06:00 +15°C° 0 mm 2 m/s 657 mmHg 51%
    07:00 +15°C° 0 mm 2 m/s 657 mmHg 50%
    08:00 +18°C° 0 mm 3 m/s 658 mmHg 43%
    09:00 +21°C° 0 mm 4 m/s 659 mmHg 36%
    10:00 +25°C° 0 mm 4 m/s 660 mmHg 28%
    11:00 +26°C° 0 mm 4 m/s 659 mmHg 25%
    12:00 +27°C° 0 mm 4 m/s 658 mmHg 22%
    13:00 +28°C° 0 mm 4 m/s 658 mmHg 19%
    14:00 +28°C° 0 mm 4 m/s 657 mmHg 19%
    15:00 +28°C° 0 mm 4 m/s 657 mmHg 19%
    16:00 +28°C° 0 mm 4 m/s 657 mmHg 19%
    17:00 +25°C° 0 mm 4 m/s 657 mmHg 24%
    18:00 +22°C° 0 mm 3 m/s 657 mmHg 28%
    19:00 +20°C° 0 mm 3 m/s 657 mmHg 33%
    20:00 +19°C° 0 mm 3 m/s 656 mmHg 36%
    21:00 +18°C° 0 mm 3 m/s 656 mmHg 38%
    22:00 +17°C° 0 mm 3 m/s 656 mmHg 41%
    23:00 +17°C° 0 mm 3 m/s 656 mmHg 43%
    Mostrar mais